Elmira, NY

10:57 AM EST on February 20, 2018 (GMT -0500)
Elmira-Corning Regional

Weather History for KELM - December, 2013

Change the Weather History Date:

Thursday, December 5, 2013

  Actual Average Record
Temperature  
Mean Temperature 50 °F -  
Max Temperature 57 °F 39 °F 66 °F (2001)
Min Temperature 43 °F 23 °F 0 °F (1966)
Degree Days  
Heating Degree Days 14    
Moisture  
Dew Point 46 °F    
Average Humidity 79    
Maximum Humidity 86    
Minimum Humidity 72    
Precipitation  
Precipitation 0.04 in - - ()
Sea Level Pressure  
Sea Level Pressure 29.91 in    
Wind  
Wind Speed 6 mph (SW)    
Max Wind Speed 16 mph    
Max Gust Speed 23 mph    
Visibility 8 miles    
Events Rain    
Averages and records for this station are not official NWS values.
T = Trace of Precipitation, MM = Missing Value Source: NWS Daily Summary

Daily Weather History Graph

Daily Weather History Graph

Search for Another Location

Airport or City:

Trip Planner

Search our weather history database for the weather conditions in past years. The results will help you decide how hot, cold, wet, or windy it might be!

Date:

Astronomy

Dec. 05, 2013 Rise Set
Actual Time 7:20 AM EST 4:35 PM EST
Civil Twilight 6:49 AM EST 5:07 PM EST
Nautical Twilight 6:14 AM EST 5:42 PM EST
Astronomical Twilight 5:40 AM EST 6:16 PM EST
Moon 9:37 AM EST (12/5) 7:55 PM EST (12/5)
Length of Visible Light 10h 17m
Length of Day
9h 14m
Waxing Crescent, 10% of the Moon is Illuminated
Dec 5
Waxing Crescent
Dec 9
First Quarter
Dec 17
Full
Dec 25
Last Quarter
Jan 1
New

Hourly Weather History & Observations

Time (EST) Temp. Windchill Dew Point Humidity Pressure Visibility Wind Dir Wind Speed Gust Speed Precip Events Conditions
12:53 AM 46.0 °F - 41.0 °F 83% 29.99 in 5.0 mi Calm Calm - N/A   Haze
1:53 AM 51.1 °F - 44.1 °F 77% 29.97 in 6.0 mi SSW 11.5 mph 17.3 mph N/A   Haze
2:53 AM 50.0 °F - 44.1 °F 80% 29.98 in 6.0 mi SSW 10.4 mph - N/A   Haze
3:53 AM 51.1 °F - 44.1 °F 77% 29.94 in 6.0 mi SW 9.2 mph - N/A   Haze
4:53 AM 51.1 °F - 45.0 °F 80% 29.94 in 6.0 mi SSW 9.2 mph - N/A   Haze
5:53 AM 51.1 °F - 45.0 °F 80% 29.94 in 7.0 mi SW 5.8 mph - N/A   Overcast
6:53 AM 51.1 °F - 45.0 °F 80% 29.94 in 7.0 mi Variable 5.8 mph - N/A   Overcast
7:53 AM 51.1 °F - 45.0 °F 80% 29.93 in 6.0 mi Variable 3.5 mph - N/A   Haze
8:53 AM 53.1 °F - 46.0 °F 77% 29.94 in 6.0 mi SW 6.9 mph - N/A   Haze
9:53 AM 54.0 °F - 46.9 °F 77% 29.94 in 7.0 mi SSW 5.8 mph - N/A   Overcast
10:53 AM 55.9 °F - 48.0 °F 75% 29.91 in 7.0 mi SSW 8.1 mph - N/A   Overcast
11:53 AM 55.9 °F - 48.0 °F 75% 29.89 in 7.0 mi SSW 11.5 mph - N/A   Overcast
12:53 PM 55.9 °F - 48.0 °F 75% 29.87 in 7.0 mi SW 10.4 mph - N/A   Overcast
1:53 PM 55.9 °F - 48.9 °F 77% 29.81 in 8.0 mi Variable 4.6 mph - 0.00 in Rain Light Rain
2:38 PM 55.4 °F - 48.2 °F 77% 29.84 in 9.0 mi SSW 6.9 mph - 0.00 in   Mostly Cloudy
2:53 PM 55.9 °F - 48.9 °F 77% 29.85 in 9.0 mi SW 6.9 mph - 0.00 in   Scattered Clouds
3:30 PM 57.2 °F - 48.2 °F 72% 29.85 in 10.0 mi SW 5.8 mph - N/A   Mostly Cloudy
3:53 PM 57.0 °F - 50.0 °F 77% 29.86 in 10.0 mi SSW 6.9 mph - N/A   Overcast
4:53 PM 57.0 °F - 50.0 °F 77% 29.87 in 10.0 mi SW 8.1 mph - N/A   Overcast
5:53 PM 55.9 °F - 50.0 °F 80% 29.86 in 10.0 mi SW 6.9 mph - N/A   Overcast
6:53 PM 55.0 °F - 50.0 °F 83% 29.87 in 10.0 mi Calm Calm - N/A   Overcast
7:53 PM 53.1 °F - 48.9 °F 86% 29.89 in 10.0 mi SW 3.5 mph - N/A   Overcast
8:53 PM 57.0 °F - 51.1 °F 81% 29.91 in 8.0 mi NW 8.1 mph - 0.00 in Rain Light Rain
9:05 PM 51.8 °F - 46.4 °F 82% 29.91 in 5.0 mi NNW 16.1 mph 23.0 mph 0.01 in Rain Light Rain
9:17 PM 51.8 °F - 46.4 °F 82% 29.92 in 7.0 mi Calm Calm - 0.01 in Rain Light Rain
9:53 PM 48.9 °F - 44.1 °F 83% 29.95 in 8.0 mi NW 4.6 mph - 0.01 in   Overcast
10:53 PM 45.0 °F 41.8 °F 37.9 °F 76% 29.97 in 6.0 mi WNW 5.8 mph - 0.01 in Rain Light Rain
11:09 PM 44.6 °F 41.4 °F 37.4 °F 76% 29.98 in 10.0 mi North 5.8 mph - 0.00 in   Overcast
11:53 PM 43.0 °F 39.5 °F 37.0 °F 80% 29.98 in 7.0 mi NNW 5.8 mph - 0.02 in Rain Light Rain